CW6164 Weather Reports


time (UTC)temp
C
wind
direction
speed
KPH
gust
KPH
rain 1hr
cm
rain 24hr
cm
rain mn
cm
humidity
%
barometer
mb
20260906052023 22 0 0.0 0.0 0.00 0.00 0.00 93 1014.2
20260906051540 22 0 0.0 0.0 0.00 0.00 0.00 92 1014.2
20260906051020 22 0 0.0 0.0 0.00 0.00 0.00 92 1014.2
20260906050524 22 0 0.0 0.0 0.00 0.00 0.00 92 1014.1
20260906050045 22 0 0.0 0.0 0.00 0.00 0.00 92 1014.2
20260906045526 22 0 0.0 0.0 0.00 0.00 0.00 92 1014.1
20260906045019 23 0 0.0 0.0 0.00 0.00 0.00 92 1014.2
20260906044543 23 0 0.0 0.0 0.00 0.00 0.00 92 1014.1
20260906044020 23 0 0.0 0.0 0.00 0.00 0.00 91 1014.0
20260906043519 23 0 0.0 0.0 0.00 0.00 0.00 91 1014.0
20260906043040 23 0 0.0 0.0 0.00 0.00 0.00 91 1014.0
20260906042520 23 0 0.0 0.0 0.00 0.00 0.00 91 1014.0
20260906042021 23 0 0.0 0.0 0.00 0.00 0.00 91 1013.9
20260906041538 23 0 0.0 0.0 0.00 0.00 0.00 91 1014.0
20260906041022 23 0 0.0 0.0 0.00 0.00 0.00 91 1013.9
20260906040520 23 0 0.0 0.0 0.00 0.00 0.00 91 1013.9
20260906040040 23 0 0.0 0.0 0.00 0.00 0.00 90 1013.8
20260906035518 23 0 0.0 0.0 0.00 0.00 0.00 90 1013.8
20260906035024 23 0 0.0 0.0 0.00 0.00 0.00 90 1013.7
20260906034546 23 0 0.0 0.0 0.00 0.00 0.00 90 1013.7
20260906034017 23 0 0.0 0.0 0.00 0.00 0.00 90 1013.6
20260906033518 23 0 0.0 0.0 0.00 0.00 0.00 90 1013.7
20260906033038 24 0 0.0 0.0 0.00 0.00 0.00 90 1013.7
20260906032519 24 0 0.0 0.0 0.00 0.00 0.00 89 1013.7
20260906032019 24 0 0.0 0.0 0.00 0.00 0.00 89 1013.7
20260906031536 24 0 0.0 0.0 0.00 0.00 0.00 89 1013.7
20260906031016 24 0 0.0 0.0 0.00 0.00 0.00 89 1013.6
20260906030518 24 0 0.0 0.0 0.00 0.00 0.00 89 1013.7
20260906030036 24 0 0.0 0.0 0.00 0.00 0.00 89 1013.7
20260906025524 24 0 0.0 0.0 0.00 0.00 0.00 89 1013.8
20260906025020 24 0 0.0 0.0 0.00 0.00 0.00 89 1013.7
20260906024556 24 0 0.0 0.0 0.00 0.00 0.00 88 1013.7
20260906024021 24 0 0.0 0.0 0.00 0.00 0.00 88 1013.8
20260906023520 24 0 0.0 0.0 0.00 0.00 0.00 87 1013.8
20260906023036 24 0 0.0 0.0 0.00 0.00 0.00 86 1013.7
20260906022516 24 0 0.0 0.0 0.00 0.00 0.00 85 1013.6
20260906022016 24 0 0.0 0.0 0.00 0.00 0.00 84 1013.5
20260906021537 24 0 0.0 0.0 0.00 0.00 0.00 84 1013.4
20260906021020 24 0 0.0 0.0 0.00 0.00 0.00 83 1013.4
20260906020518 24 0 0.0 0.0 0.00 0.00 0.00 82 1013.4
20260906020046 24 0 0.0 0.0 0.00 0.00 0.00 82 1013.4
20260906015519 24 0 0.0 0.0 0.00 0.00 0.00 82 1013.3
20260906015019 24 0 0.0 0.0 0.00 0.00 0.00 82 1013.3
20260906014551 24 0 0.0 0.0 0.00 0.00 0.00 82 1013.3
20260906014023 24 0 0.0 0.0 0.00 0.00 0.00 82 1013.1
20260906013519 25 0 0.0 0.0 0.00 0.00 0.00 82 1012.9
20260906013043 25 0 0.0 0.0 0.00 0.00 0.00 82 1013.0
20260906012519 25 0 0.0 1.6 0.00 0.00 0.00 82 1012.8
20260906012022 25 0 0.0 1.6 0.00 0.00 0.00 81 1012.8
20260906011542 25 0 0.0 0.0 0.00 0.00 0.00 81 1012.7
20260906011017 25 0 0.0 3.2 0.00 0.00 0.00 81 1012.6
20260906010520 25 0 0.0 3.2 0.00 0.00 0.00 80 1012.7
20260906010042 25 0 0.0 4.8 0.00 0.00 0.00 80 1012.6
20260906005517 25 0 0.0 4.8 0.00 0.00 0.00 79 1012.5
20260906005023 25 35 1.6 4.8 0.00 0.00 0.00 78 1012.4
20260906004543 26 54 1.6 6.4 0.00 0.00 0.00 78 1012.3
20260906004026 26 360 1.6 6.4 0.00 0.00 0.00 77 1012.2
20260906003522 26 49 1.6 6.4 0.00 0.00 0.00 77 1012.1
20260906003050 26 59 3.2 6.4 0.00 0.00 0.00 77 1012.1
20260906002517 26 23 1.6 6.4 0.00 0.00 0.00 77 1012.0
20260906002018 26 0 1.6 11.3 0.00 0.00 0.00 77 1012.0
20260906001541 26 46 1.6 11.3 0.00 0.00 0.00 76 1012.0
20260906001019 26 46 1.6 9.7 0.00 0.00 0.00 76 1012.0
20260906000523 27 51 3.2 9.7 0.00 0.00 0.00 75 1011.8
20260906000042 27 61 3.2 8.0 0.00 0.00 0.00 75 1012.0
20260905235519 27 42 3.2 9.7 0.00 0.00 0.00 75 1012.0
20260905235024 27 92 3.2 16.1 0.00 0.00 0.00 73 1012.1
20260905234545 28 30 3.2 16.1 0.00 0.00 0.00 72 1011.9
20260905234024 28 79 6.4 16.1 0.00 0.00 0.00 70 1011.9
20260905233518 29 79 6.4 16.1 0.00 0.00 0.00 70 1012.0
20260905233040 30 84 6.4 16.1 0.00 0.00 0.00 70 1012.0
20260905232521 30 64 3.2 8.0 0.00 0.00 0.00 72 1012.0
20260905232022 30 355 1.6 6.4 0.00 0.00 0.00 73 1012.0
20260905231540 30 5 1.6 8.0 0.00 0.00 0.00 71 1012.0
20260905231020 30 308 3.2 8.0 0.00 0.00 0.00 70 1012.0
20260905230524 30 306 1.6 8.0 0.00 0.00 0.00 70 1012.0
20260905230042 31 0 3.2 8.0 0.00 0.00 0.00 69 1011.9
20260905225522 31 343 3.2 8.0 0.00 0.00 0.00 68 1012.0
20260905225018 31 327 3.2 9.7 0.00 0.00 0.00 67 1011.9
20260905224538 31 325 3.2 14.5 0.00 0.00 0.00 66 1011.8
20260905224020 31 330 4.8 14.5 0.00 0.00 0.00 66 1011.5
20260905223518 31 311 4.8 14.5 0.00 0.00 0.00 66 1011.4
20260905223039 31 297 1.6 8.0 0.00 0.00 0.00 66 1011.4
20260905222528 31 316 3.2 8.0 0.00 0.00 0.00 66 1011.5
20260905222020 31 293 1.6 6.4 0.00 0.00 0.00 67 1011.6
20260905221546 31 0 0.0 4.8 0.00 0.00 0.00 67 1011.5
20260905221023 31 284 1.6 4.8 0.00 0.00 0.00 67 1011.7
20260905220523 31 282 1.6 4.8 0.00 0.00 0.00 68 1011.4
20260905220044 31 0 1.6 4.8 0.00 0.00 0.00 67 1011.2
20260905215520 31 0 0.0 9.7 0.00 0.00 0.00 66 1011.2
20260905215021 31 250 1.6 11.3 0.00 0.00 0.00 66 1011.3
20260905214545 31 5 3.2 11.3 0.00 0.00 0.00 65 1011.4
20260905214020 31 279 1.6 6.4 0.00 0.00 0.00 64 1011.5
20260905213520 31 283 1.6 8.0 0.00 0.00 0.00 63 1011.7
20260905213046 31 292 1.6 8.0 0.00 0.00 0.00 63 1011.4
20260905212526 31 268 3.2 6.4 0.00 0.00 0.00 62 1011.5
20260905212023 31 280 3.2 6.4 0.00 0.00 0.00 62 1011.7
20260905211543 32 249 1.6 6.4 0.00 0.00 0.00 62 1011.4
20260905211025 32 282 1.6 8.0 0.00 0.00 0.00 61 1011.7
20260905210524 32 248 3.2 8.0 0.00 0.00 0.00 61 1011.9
20260905210040 32 281 3.2 8.0 0.00 0.00 0.00 60 1011.8
20260905205522 32 294 1.6 8.0 0.00 0.00 0.00 59 1011.9
20260905205020 32 292 1.6 4.8 0.00 0.00 0.00 60 1012.1
20260905204548 33 0 0.0 8.0 0.00 0.00 0.00 59 1012.0
20260905204025 33 286 3.2 8.0 0.00 0.00 0.00 57 1012.0
20260905203523 33 285 3.2 9.7 0.00 0.00 0.00 57 1012.1
20260905203044 33 205 3.2 9.7 0.00 0.00 0.00 59 1012.1
20260905202519 33 213 3.2 9.7 0.00 0.00 0.00 58 1012.3
20260905202019 33 284 3.2 9.7 0.00 0.00 0.00 58 1012.3
20260905201545 33 214 1.6 6.4 0.00 0.00 0.00 58 1012.4
20260905201019 33 146 1.6 8.0 0.00 0.00 0.00 59 1012.4
20260905200520 32 277 0.0 8.0 0.00 0.00 0.00 59 1012.4
20260905200052 33 296 1.6 8.0 0.00 0.00 0.00 58 1012.4
20260905195521 33 277 1.6 8.0 0.00 0.00 0.00 58 1012.5
20260905195019 33 320 3.2 8.0 0.00 0.00 0.00 57 1012.5
20260905194547 32 259 1.6 6.4 0.00 0.00 0.00 60 1012.5
20260905194024 32 217 1.6 9.7 0.00 0.00 0.00 59 1012.7
20260905193519 32 0 3.2 9.7 0.00 0.00 0.00 59 1012.7
20260905193052 33 304 3.2 9.7 0.00 0.00 0.00 56 1012.7
20260905192518 33 306 3.2 16.1 0.00 0.00 0.00 58 1012.8
20260905192021 33 115 3.2 16.1 0.00 0.00 0.00 58 1012.8
20260905191544 33 289 3.2 8.0 0.00 0.00 0.00 56 1012.9
20260905191018 33 275 1.6 12.9 0.00 0.00 0.00 56 1013.1
20260905190517 33 184 3.2 12.9 0.00 0.00 0.00 57 1013.2
20260905190043 33 302 3.2 12.9 0.00 0.00 0.00 58 1013.2
20260905185519 32 300 3.2 8.0 0.00 0.00 0.00 59 1013.2
20260905185026 32 240 3.2 16.1 0.00 0.00 0.00 57 1013.3
20260905184543 32 285 1.6 16.1 0.00 0.00 0.00 59 1013.5
20260905184023 32 294 4.8 16.1 0.00 0.00 0.00 58 1013.5
20260905183523 32 222 3.2 12.9 0.00 0.00 0.00 57 1013.4
20260905183042 32 219 1.6 12.9 0.00 0.00 0.00 58 1013.5
20260905182518 32 213 1.6 8.0 0.00 0.00 0.00 58 1013.5
20260905182020 32 180 3.2 11.3 0.00 0.00 0.00 58 1013.7
20260905181541 32 207 3.2 12.9 0.00 0.00 0.00 57 1013.6
20260905181017 32 199 4.8 12.9 0.00 0.00 0.00 57 1013.7
20260905180518 32 184 3.2 11.3 0.00 0.00 0.00 58 1013.8
20260905180044 32 167 1.6 11.3 0.00 0.00 0.00 59 1013.8
20260905175523 32 237 1.6 12.9 0.00 0.00 0.00 58 1013.8
20260905175019 31 193 1.6 12.9 0.00 0.00 0.00 60 1013.9
20260905174542 31 259 3.2 12.9 0.00 0.00 0.00 60 1013.8
20260905174018 31 227 3.2 12.9 0.00 0.00 0.00 57 1013.9
20260905173518 31 282 1.6 11.3 0.00 0.00 0.00 59 1014.0
20260905173039 31 185 3.2 9.7 0.00 0.00 0.00 60 1014.1
20260905172520 31 235 3.2 12.9 0.00 0.00 0.00 61 1014.1
20260905172021 31 149 3.2 12.9 0.00 0.00 0.00 62 1014.2
20260905171540 30 208 3.2 14.5 0.00 0.00 0.00 61 1014.2
20260905171017 30 0 4.8 14.5 0.00 0.00 0.00 61 1014.3
20260905170523 30 238 3.2 11.3 0.00 0.00 0.00 62 1014.4
20260905170047 30 163 3.2 14.5 0.00 0.00 0.00 61 1014.4
20260905165520 30 265 4.8 14.5 0.00 0.00 0.00 60 1014.5
20260905165018 30 201 3.2 12.9 0.00 0.00 0.00 62 1014.6
20260905164541 30 288 4.8 14.5 0.00 0.00 0.00 62 1014.7
20260905164019 30 281 3.2 14.5 0.00 0.00 0.00 62 1014.7
20260905163525 29 301 3.2 9.7 0.00 0.00 0.00 66 1015.0
20260905163041 29 168 1.6 12.9 0.00 0.00 0.00 65 1015.0
20260905162524 29 171 1.6 12.9 0.00 0.00 0.00 64 1014.9
20260905162024 28 282 3.2 11.3 0.00 0.00 0.00 64 1014.9
20260905161541 28 143 3.2 11.3 0.00 0.00 0.00 63 1014.8
20260905161023 28 230 3.2 8.0 0.00 0.00 0.00 66 1014.9
20260905160521 28 0 1.6 11.3 0.00 0.00 0.00 65 1014.9
20260905160046 28 242 4.8 12.9 0.00 0.00 0.00 64 1015.1
20260905155518 28 184 3.2 12.9 0.00 0.00 0.00 65 1014.9
20260905155019 28 171 3.2 11.3 0.00 0.00 0.00 67 1014.7
20260905154542 28 238 1.6 9.7 0.00 0.00 0.00 67 1015.0
20260905154020 28 234 3.2 11.3 0.00 0.00 0.00 67 1015.1
20260905153518 27 187 3.2 11.3 0.00 0.00 0.00 68 1015.1
20260905153041 27 257 3.2 11.3 0.00 0.00 0.00 67 1015.2
20260905152523 27 266 3.2 11.3 0.00 0.00 0.00 68 1015.1
20260905152023 27 229 3.2 16.1 0.00 0.00 0.00 68 1015.0
20260905151543 27 243 3.2 16.1 0.00 0.00 0.00 68 1015.0
20260905151021 27 268 6.4 16.1 0.00 0.00 0.00 69 1015.0
20260905150522 26 200 3.2 12.9 0.00 0.00 0.00 69 1014.9
20260905150044 26 158 3.2 12.9 0.00 0.00 0.00 69 1015.0
20260905145521 26 120 3.2 11.3 0.00 0.00 0.00 72 1015.0
20260905145020 26 149 4.8 11.3 0.00 0.00 0.00 71 1015.1
20260905144547 26 267 1.6 14.5 0.00 0.00 0.00 72 1015.1
20260905144017 26 223 3.2 14.5 0.00 0.00 0.00 70 1015.0
20260905143519 26 176 3.2 12.9 0.00 0.00 0.00 71 1015.1
20260905143049 25 0 3.2 12.9 0.00 0.00 0.00 73 1015.2
20260905142517 25 252 4.8 14.5 0.00 0.00 0.00 72 1015.1
20260905142023 25 267 3.2 16.1 0.00 0.00 0.00 73 1015.1
20260905141538 25 261 4.8 16.1 0.00 0.00 0.00 74 1015.2
20260905141026 25 149 1.6 11.3 0.00 0.00 0.00 74 1015.1
20260905140524 25 189 3.2 11.3 0.00 0.00 0.00 74 1015.1
20260905140041 25 258 3.2 8.0 0.00 0.00 0.00 75 1015.4
20260905135518 25 139 1.6 11.3 0.00 0.00 0.00 76 1015.3
20260905135020 24 236 3.2 11.3 0.00 0.00 0.00 75 1015.3
20260905134539 25 157 3.2 11.3 0.00 0.00 0.00 76 1015.2
20260905134025 24 135 1.6 11.3 0.00 0.00 0.00 77 1015.3
20260905133527 24 227 3.2 11.3 0.00 0.00 0.00 77 1015.3
20260905133041 24 196 1.6 11.3 0.00 0.00 0.00 77 1015.4
20260905132521 24 315 1.6 11.3 0.00 0.00 0.00 77 1015.4
20260905132026 23 188 1.6 9.7 0.00 0.00 0.00 78 1015.3
20260905131548 23 146 1.6 9.7 0.00 0.00 0.00 79 1015.3
20260905131024 23 174 1.6 11.3 0.00 0.00 0.00 80 1015.3
20260905130520 23 243 0.0 11.3 0.00 0.00 0.00 80 1015.3
20260905130040 23 164 3.2 11.3 0.00 0.00 0.00 80 1015.2
20260905125527 22 211 1.6 8.0 0.00 0.00 0.00 81 1015.1
20260905125023 22 0 1.6 6.4 0.00 0.00 0.00 81 1015.3
20260905124543 22 148 1.6 8.0 0.00 0.00 0.00 82 1015.4
20260905124025 22 0 0.0 8.0 0.00 0.00 0.00 83 1015.4
20260905123520 22 143 1.6 8.0 0.00 0.00 0.00 83 1015.3
20260905123041 22 0 1.6 8.0 0.00 0.00 0.00 84 1015.4
20260905122519 22 156 3.2 8.0 0.00 0.00 0.00 84 1015.4
20260905122018 21 229 1.6 9.7 0.00 0.00 0.00 85 1015.3
20260905121539 21 158 3.2 9.7 0.00 0.00 0.00 85 1015.4
20260905121023 21 181 1.6 6.4 0.00 0.00 0.00 86 1015.6
20260905120518 21 0 0.0 6.4 0.00 0.00 0.00 86 1015.5
20260905120042 21 205 1.6 8.0 0.00 0.00 0.00 87 1015.3
20260905115522 21 202 1.6 8.0 0.00 0.00 0.00 87 1015.2
20260905115021 21 93 1.6 8.0 0.00 0.00 0.00 87 1015.3
20260905114545 21 119 1.6 6.4 0.00 0.00 0.00 87 1015.2
20260905114020 21 47 1.6 11.3 0.00 0.00 0.00 88 1015.2
20260905113523 21 161 1.6 11.3 0.00 0.00 0.00 88 1015.1
20260905113041 21 165 3.2 11.3 0.00 0.00 0.00 88 1015.2
20260905112518 21 88 1.6 14.5 0.00 0.00 0.00 90 1015.2
20260905112018 21 126 4.8 14.5 0.00 0.00 0.00 91 1015.0
20260905111548 21 148 4.8 17.7 0.00 0.00 0.00 92 1015.0
20260905111020 21 0 1.6 17.7 0.00 0.00 0.00 93 1014.9
20260905110522 21 153 1.6 17.7 0.00 0.00 0.00 94 1015.0
20260905110042 21 156 4.8 24.1 0.00 0.00 0.00 94 1015.2
20260905105518 21 170 9.7 24.1 0.00 0.00 0.00 94 1015.2
20260905105018 22 155 9.7 20.9 0.00 0.00 0.00 95 1015.0
20260905104538 23 0 0.0 0.0 0.00 0.00 0.00 96 1014.8
20260905104018 23 0 0.0 0.0 0.00 0.00 0.00 96 1014.4
20260905103518 23 0 0.0 0.0 0.00 0.00 0.00 96 1013.8
20260905103039 23 0 0.0 0.0 0.00 0.00 0.00 96 1013.7
20260905102519 23 0 0.0 0.0 0.00 0.00 0.00 96 1013.8
20260905102021 23 0 0.0 0.0 0.00 0.00 0.00 96 1013.8
20260905101544 23 0 0.0 0.0 0.00 0.00 0.00 96 1013.8
20260905101022 23 0 0.0 0.0 0.00 0.00 0.00 96 1013.8
20260905100523 23 0 0.0 0.0 0.00 0.00 0.00 96 1013.7
20260905100042 23 0 0.0 0.0 0.00 0.00 0.00 96 1013.7
20260905095517 23 0 0.0 0.0 0.00 0.00 0.00 96 1013.7
20260905095017 23 0 0.0 0.0 0.00 0.00 0.00 96 1013.6
20260905094539 23 0 0.0 0.0 0.00 0.00 0.00 95 1013.4
20260905094021 23 0 0.0 0.0 0.00 0.00 0.00 96 1013.4
20260905093520 23 0 0.0 0.0 0.00 0.00 0.00 95 1013.4
20260905093042 23 0 0.0 0.0 0.00 0.00 0.00 96 1013.5
20260905092519 23 0 0.0 0.0 0.00 0.00 0.00 96 1013.5
20260905092016 23 0 0.0 0.0 0.00 0.00 0.00 95 1013.3
20260905091535 23 0 0.0 0.0 0.00 0.00 0.00 95 1013.5
20260905091022 23 0 0.0 0.0 0.00 0.00 0.00 95 1013.6
20260905090521 23 0 0.0 0.0 0.00 0.00 0.00 95 1013.6
20260905090038 23 0 0.0 0.0 0.00 0.00 0.00 95 1013.5
20260905085525 23 0 0.0 0.0 0.00 0.00 0.00 95 1013.5
20260905085022 23 0 0.0 0.0 0.00 0.00 0.00 95 1013.5
20260905084547 23 0 0.0 0.0 0.00 0.00 0.00 95 1013.6
20260905084021 23 0 0.0 0.0 0.00 0.00 0.00 95 1013.7
20260905083519 23 0 0.0 0.0 0.00 0.00 0.00 95 1013.6
20260905083039 23 0 0.0 0.0 0.00 0.00 0.00 95 1013.6
20260905082524 23 0 0.0 0.0 0.00 0.00 0.00 95 1013.4
20260905082025 23 0 0.0 0.0 0.00 0.00 0.00 95 1013.3
20260905081542 23 0 0.0 0.0 0.00 0.00 0.00 95 1013.2
20260905081020 23 0 0.0 0.0 0.00 0.00 0.00 94 1013.1
20260905080523 23 0 0.0 0.0 0.00 0.00 0.00 94 1012.9
20260905080045 23 0 0.0 0.0 0.00 0.00 0.00 94 1012.8
20260905075519 23 0 0.0 0.0 0.00 0.00 0.00 94 1012.8
20260905075019 23 0 0.0 0.0 0.00 0.00 0.00 94 1012.7
20260905074541 23 0 0.0 0.0 0.00 0.00 0.00 94 1012.7
20260905074023 23 0 0.0 0.0 0.00 0.00 0.00 94 1012.8
20260905073518 23 0 0.0 0.0 0.00 0.00 0.00 94 1012.8
20260905073039 23 0 0.0 0.0 0.00 0.00 0.00 94 1012.8
20260905072521 23 0 0.0 0.0 0.00 0.00 0.00 94 1012.6
20260905072018 23 0 0.0 0.0 0.00 0.00 0.00 94 1012.6
20260905071542 23 0 0.0 0.0 0.00 0.00 0.00 94 1012.7
20260905071020 23 0 0.0 0.0 0.00 0.00 0.00 94 1012.8
20260905070517 23 0 0.0 0.0 0.00 0.00 0.00 94 1012.8
20260905070040 23 0 0.0 0.0 0.00 0.00 0.00 94 1012.9
20260905065518 23 0 0.0 0.0 0.00 0.00 0.00 94 1012.9
20260905065021 23 0 0.0 0.0 0.00 0.00 0.00 94 1013.0
20260905064546 23 0 0.0 0.0 0.00 0.00 0.00 94 1013.2
20260905064023 23 0 0.0 0.0 0.00 0.00 0.00 94 1013.3
20260905063518 23 0 0.0 0.0 0.00 0.00 0.00 94 1013.4
20260905063047 23 0 0.0 0.0 0.00 0.00 0.00 94 1013.5
20260905062522 23 0 0.0 0.0 0.00 0.00 0.00 94 1013.5
20260905062020 23 0 0.0 0.0 0.00 0.00 0.00 94 1013.6
20260905061549 23 0 0.0 0.0 0.00 0.00 0.00 94 1013.5
20260905061020 23 0 0.0 0.0 0.00 0.00 0.00 94 1013.6
20260905060520 23 0 0.0 0.0 0.00 0.00 0.00 94 1013.7
20260905060041 23 0 0.0 0.0 0.00 0.00 0.00 94 1013.7
20260905055518 23 0 0.0 0.0 0.00 0.00 0.00 94 1013.8
20260905055020 23 0 0.0 0.0 0.00 0.00 0.00 94 1013.9
20260905054540 23 0 0.0 0.0 0.00 0.00 0.00 94 1013.8
20260905054016 23 0 0.0 0.0 0.00 0.00 0.00 93 1013.9
20260905053519 23 0 0.0 0.0 0.00 0.00 0.00 94 1014.0
20260905053037 23 0 0.0 0.0 0.00 0.00 0.00 93 1013.9
20260905052524 23 0 0.0 0.0 0.00 0.00 0.00 93 1013.9